Weather Roundup
Issued by NWS Chicago, IL

Home | Current Version | Previous Version | Text Only | Print | Product List | Glossary Off
Versions: 1 2 3 4 5 6 7 8 9 10 11 12 13 14 15 16 17 18 19 20 21 22 23 24 25 26 27 28 29 30 31 32 33 34 35 36 37 38 39 40 41 42 43 44 45 46 47 48 49 50

000
NZUS59 KLOT 270008
HRRLOT

CHICAGO AREA WEATHER ROUNDUP
NATIONAL WEATHER SERVICE CHICAGO/ROMEOVILLE IL
700 PM CDT MON SEP 26 2016

NOTE: "FAIR" INDICATES FEW OR NO CLOUDS BELOW 12,000 FEET WITH NO
SIGNIFICANT WEATHER AND/OR OBSTRUCTIONS TO VISIBILITY.

* THESE STATIONS ARE NOT UNDER NWS QUALITY CONTROL. THEY ALSO MAY NOT
  REPORT WEATHER SUCH AS PRECIPITATION OR FOG.

ILZ005-006-012>014-019>023-270100-
NORTHEAST ILLINOIS

CITY           SKY/WX    TMP DP  RH WIND       PRES   REMARKS
OHARE          CLEAR     65  32  29 W15       29.93R
6HR MIN TEMP:  65; 6HR MAX TEMP:  69;

MIDWAY         PTCLDY    67  31  26 W13G23    29.94R
6HR MIN TEMP:  67; 6HR MAX TEMP:  72;

AURORA         CLEAR     63  35  35 W10       29.96R
6HR MIN TEMP:  63; 6HR MAX TEMP:  71;

LANSING*       CLEAR     65  37  35 W12G21    29.95R
JOLIET*        CLEAR     66  34  30 W7        29.96S
WAUKEGAN       CLEAR     63  34  33 VRB3      29.90R
6HR MIN TEMP:  63; 6HR MAX TEMP:  68;

DUPAGE AIRPORT CLEAR     63  34  33 W10       29.94R
6HR MIN TEMP:  63; 6HR MAX TEMP:  69;

WHEELING       CLEAR     65  32  29 W7G16     29.93R
6HR MIN TEMP:  65; 6HR MAX TEMP:  69;

KANKAKEE*      CLEAR     64  33  32 W6        29.98R
MORRIS*        CLEAR     65  33  30 W8        29.96R
LEWIS AIRPORT* CLEAR     64  39  40 W10G17    29.96R
NORTHERLY ISL    N/A     68  31  25 W9          N/A
$$

WIZ051-052-058>065-066-070>072-270100-
SOUTHEAST WISCONSIN

CITY           SKY/WX    TMP DP  RH WIND       PRES   REMARKS
MILWAUKEE      MOCLDY    65  35  33 W8        29.87S
6HR MIN TEMP:  65; 6HR MAX TEMP:  68;

KENOSHA*       CLEAR     62  35  36 W12       29.90R
RACINE*        PTCLDY    63  34  33 W8G16     29.89S
BURLINGTON     PTCLDY    59  33  37 W6        29.89S
WAUKESHA       PTCLDY    59  34  38 W12G23    29.88S
WEST BEND      PTCLDY    57  34  41 W6        29.85S
$$

INZ001>003-010>013-019-020-270100-
NORTHWEST INDIANA

CITY           SKY/WX    TMP DP  RH WIND       PRES   REMARKS
GARY*          CLEAR     68  30  24 W23G39    29.95R
MICHIGAN CITY* NOT AVBL
RENSSELAER*    NOT AVBL
VALPARAISO     CLEAR     60  37  42 SW7       29.96R
$$

LMZ740>746-270100-
SOUTHERN LAKE MICHIGAN

STATION/POSITION TIME  SKY/WX   TEMP WIND        PRES    VSBY
                                AIR  DIR/SP/G
                 (UTC)          (F)  (DEG/KT/KT) (MB)    (MI)
HARRISON CRIB    2300            69  270/ 26/ 32   N/A
BURNHAM HARBOR   0000            67  260/  8/ 15   N/A
CALUMET HARBOR   2300            69  250/  9/ 16 1012.9F
BURNS HARBOR     2303            68  270/ 22     1013.5S
MICHIGAN CITY    2300            67  240/ 24/ 27   N/A
$$

ABBREVIATIONS USED IN REMARKS
   TC - TEMPERATURE IN CELSIUS
  WCI - WIND CHILL INDEX
   HX - HEAT INDEX
  VSB - VISIBILITY
$$




USA.gov is the U.S. government's official web portal to all federal, state and local government web resources and services.